This is the latest recevied weather packets stored in our database for station/object EA2KR-10. If no packets are shown the sender has not sent any weather packets the latest 10 day(s).
| Time | Temp. | Humidity | Pressure | Rain* | Wind** | Luminosity | Snow |
|---|---|---|---|---|---|---|---|
| 1787970804 | 22.22° C | 33% | 1031.3 hPa | - | - | - | - |
| 1787969003 | 22.22° C | 32% | 1031.3 hPa | - | - | - | - |
| 1787967203 | 22.78° C | 32% | 1031.2 hPa | - | - | - | - |
| 1787965403 | 23.33° C | 31% | 1031.3 hPa | - | - | - | - |
| 1787963603 | 23.89° C | 30% | 1031.4 hPa | - | - | - | - |
| 1787961803 | 24.44° C | 30% | 1031.7 hPa | - | - | - | - |
| 1787960003 | 25° C | 29% | 1031.8 hPa | - | - | - | - |
| 1787958203 | 25.56° C | 28% | 1031.8 hPa | - | - | - | - |
| 1787956403 | 26.11° C | 28% | 1032 hPa | - | - | - | - |
| 1787954602 | 26.67° C | 27% | 1031.9 hPa | - | - | - | - |
| 1787952802 | 27.78° C | 26% | 1032 hPa | - | - | - | - |
| 1787951002 | 28.89° C | 24% | 1032.1 hPa | - | - | - | - |
| 1787949202 | 30° C | 24% | 1031.9 hPa | - | - | - | - |
| 1787947401 | 31.11° C | 23% | 1031.7 hPa | - | - | - | - |
| 1787945601 | 32.78° C | 22% | 1031.3 hPa | - | - | - | - |
| 1787943801 | 34.44° C | 20% | 1030.9 hPa | - | - | - | - |
| 1787942003 | 36.11° C | 19% | 1030.8 hPa | - | - | - | - |
| 1787940203 | 38.33° C | 18% | 1030.6 hPa | - | - | - | - |
| 1787938403 | 39.44° C | 18% | 1030.5 hPa | - | - | - | - |
| 1787936603 | 41.11° C | 17% | 1030.4 hPa | - | - | - | - |
| 1787934803 | 41.11° C | 18% | 1030.3 hPa | - | - | - | - |
| 1787933002 | 41.11° C | 17% | 1030.2 hPa | - | - | - | - |
| 1787931202 | 40.56° C | 18% | 1030.3 hPa | - | - | - | - |
| 1787929404 | 40° C | 18% | 1030.3 hPa | - | - | - | - |
| 1787927602 | 39.44° C | 20% | 1030.5 hPa | - | - | - | - |
* Rain since midnight (hover to see other rain measurements)
** Current wind speed in m/s (hover to see current wind gust speed)